Val-d'Or Airport
CYVO : now visible

Airfield :











YOU CAN JOIN US ON...

 
LOGIN :

Register | Disclaimer

   EN    FR    IT 

 









Legend :    VFR   Marginal VFR   IFR   Intensive IFR   Very Intensive IFR
Visi :
Ceiling :
>= 8 km
>= 3000ft
5 to 8 km
1000 to 3000 ft
1500m to 5 km
500 to 1000 ft
800 to 1500m
200 to 500 ft
< 800m
< 200 ft
Symbols :   Thunderstorms  Fog  Heavy snow  Heavy precipitations  Wind > 20 kt






- Airport Elevation : 1107 ft
- IATA code : YVO


CYVO - Val-d'Or

CURRENT METAR :
  • 072100Z 35007KT 15SM FEW220 02/M06 A2979 RMK CI1 SLP108

EXPIRED METARs :
  • 072000Z 34008KT 15SM FEW220 02/M07 A2981 RMK CI2 SLP115
  • 071900Z 36008KT 15SM FEW210 01/M06 A2983 RMK CI2 SLP123

TAF TAF CYVO
Valid from the 07 at 18:00 until the 08 at 06:00 UTC


071738Z 0718/0806 36008KT P6SM FEW020
BECMG 0720/0722 VRB03KT SCT240
FM080300 07005KT P6SM BKN140 OVC200 RMK NXT FCST BY 080000Z



MET'MAP, your aeronautical weather chart ! - Copyright ORBIFLY December 2007 - Disclaimer

ORBIFLY MET'MAP TEAM :

Programming & Development : Alexandra Zaïnal
Concept & original design : Baudouin d'Aumeries
Assistance for programming : Marc-Olivier Méhu
Technical & hardware support : Manuel Goepfert

Contact : metmap@orbifly.com




SOURCES & CREDITS :

   NOAA       Earth
Advisory